Location: Wien
(48.2082°N, 16.3738°E)
Time: 09:15:16
(UTC+02:00)

Transit 4A - Pass Details

Date: 26 February 2024
Orbit: 871 x 971 km, 66.8° (Epoch: 24 April)

Event Time Altitude Azimuth Distance (km) Brightness Sun altitude
Exits shadow 03:26:31 22° 347° (NNW) 1,862 9.5 -32.8°
Drops below altitude 10° 03:29:58 10° 21° (NNE) 2,579 10.7 -32.3°
Sets 03:32:58 0° 35° (NE) 3,506 11.7 -31.8°
